DECAYED
Showing default

TSINGHUA SCIENCE, 46026 (Decayed)

Orbit data source: Space-Track

TSINGHUA SCIENCE, 46026 was a payload satellite owned by Tsinghua (CN) in LEO that was launched on Thu, 06 Aug 2020 UTC via a CHANG ZHENG 2D launch vehicle from the Jiuquan Satellite Launch Center, China (JSC). Payloads include a variety of satellites, spacecraft, and rockets equipped with specific instruments for various scientific and technological missions. These include communications satellites like Starlink; space stations such as the ISS; scientific satellites like the Hubble; Earth observation satellites from companies like Planet Labs, Umbra, and HawkEye 360; GPS; miniature CubeSats for education and research; and military/defense satellites.

Not visible in the next 10 days
TSINGHUA SCIENCE details
Identifier
46026, 2020-054B
Orbit
Decayed
Last TLE update7 months ago
Origin
Flag of CNTsinghua (CN / PRC)
ManufacturerTsinghua
MissionDecayed Amateur Science
Bus & MotorTSSCI, Unknown motor
Mass~100 kg wet, ~100 kg dry
Launch date (UTC)
2020-08-06 (4 years ago)
Launch vehicle
CHANG ZHENG 2D
Launch site
Jiuquan Satellite Launch Center, China (JSC)
Object type
Payload
Rocket body
Debris
Shape & HBRBox, Unknown HBR
Radar Cross Section0.080 m², Medium (>0.1 m² and < 1m²)

Expand to show TLE details & history

TLE from 7 months ago
0 TSINGHUA SCIENCE
1 46026U 20054B   24163.19113482  .09146016  25032-5  36597-3 0  9991
2 46026  97.3073 261.8657 0015693 263.8822  96.0691 16.42180447215588
Epoch: 2024-06-11T04:35Z
Definitive object data (Epoch: 2024-06-11T04:35:14.048Z)
Latitude-0.00001°
Longitude-66.95873°
Altitude164.367 km
Speed7.807 km/s
True Right ascension17h 27m 27s
True Declination0° 00' 00"
Sunlit
Object was in full shadow at TLE epoch
Visualization observer readout
Observer readout values are unavailable because the object's trajectory could not be propagated. This is usually caused when the trajectory data is faulty or the object's orbit has decayed.
Visualization observer readout
Observer readout values are unavailable because the object's trajectory could not be propagated. This is usually caused when the trajectory data is faulty or the object's orbit has decayed.
Orbital elements
Apogee altitude167.065 km
Perigee altitude146.554 km
Semi-major axis6,534.946 km
Eccentricity0.0015693
Inclination97.3073°
RAAN261.8657°
Arg. of periapsis263.8822°
True anomaly96.24788°
Mean anomaly96.0691°
Eccentric anomaly96.1585°
Mean motion4.10847 °/min
BSTAR0.00036597
Orbital period87.62 mins
Loading maneuver chart data...
Loading historical data...
Loading historical data...
Loading historical data...
Loading historical data...
Loading historical data...
Loading historical data...
Loading historical data...
Other satellites on launch #54 in the year 2020 (2020-08-06 UTC)

TSINGHUA SCIENCE Visibility forecast

Observer location: undefined°, undefined

This satellite is decayed
Span
Click to sort rows by Start time (UTC) header in descending order
Start Az.
Max El. time (UTC)
Max El. Az.
Max El.
End time (UTC)
End Az.
|